22.2.2020 Tornio Ralli

Tulokset  Keskeyttäneet (52)  AT-pisteet (7)  Tilastot Lähtöön oikeutettujen lista CSV


 << EK3 EK5 >> Yleiskilpailun tulos
Tornio Ralli
22.2.2020
EK 4, LUOKKATULOKSET
Lisäluokat
Tornion Ralliharrastajat
Torando 2
 
Luokka 2 , Historic gr2,4, a yli 1350 60-90 vm. 2wd , Lähti:7
EK4, 1.27km, nopein: 42.8km/h
SijNroNimiTulosEro
1113Jani Ahola1:46,9
2117Esa Huovinen1:50,83,9
3114Jarmo Holtinkoski1:56,89,9
4119jouni kumpulainen1:59,612,7
5115Jari Lukkarila1:59,913,0
6116samuli mustonen2:00,213,3
Tulos EK 4 jälkeen
SijNroNimiTulosEro
1117Esa Huovinen18:11,7
2113Jani Ahola18:27,7 16,0
3114Jarmo Holtinkoski18:51,7*40,0
4119jouni kumpulainen19:23,8 1:12,1
5116samuli mustonen19:30,5 1:18,8
6115Jari Lukkarila20:21,7 2:10,0


Keskeyttäneet: 118, Jesse Aho, 3A, ?
*AT-pisteet: 114, Jarmo Holtinkoski, 4L, Vilppilähtö, 10,0
 
Luokka 10 , Naiset cc vapaa 2wd , Lähti:3
EK4, 1.27km, nopein: 40.2km/h
SijNroNimiTulosEro
136Sara Vainikainen1:53,7
237Marika Laukkanen1:59,96,2
338Katja Kehus2:04,811,1
Tulos EK 4 jälkeen
SijNroNimiTulosEro
136Sara Vainikainen19:05,7
238Katja Kehus20:36,0 1:30,3
337Marika Laukkanen21:01,8 1:56,1

 
Luokka 14 , F, A, HR alle 1650 2wd Nuotti , Lähti:4
EK4, 1.27km, nopein: 44.3km/h
SijNroNimiTulosEro
172Jonne Ollikainen1:43,1
273Patrik Goman1:44,81,7
370Benjamin Korhola €1:45,52,4
471Mielityinen Eemil1:48,85,7
Tulos EK 4 jälkeen
SijNroNimiTulosEro
170Benjamin Korhola €16:59,6
273Patrik Goman17:50,1 50,5
372Jonne Ollikainen17:57,7 58,1
471Mielityinen Eemil19:15,4*2:15,8


*AT-pisteet: 71, Mielityinen Eemil, 3L, Vilppilähtö, 10,0
 
Luokka 18 , VW aircooled 2wd , Lähti:0
 
Luokka 19 , Lada orginal 2wd , Lähti:2
EK4, 1.27km, nopein: 40.1km/h
SijNroNimiTulosEro
1106Ari Anttonen1:53,9
2107Ari Koskinen1:58,14,2
Tulos EK 4 jälkeen
SijNroNimiTulosEro
1106Ari Anttonen20:03,8
2107Ari Koskinen20:29,3 25,5

 
Luokka 21 , Aloittelijoiden luokka (max. 5 kilpailua) , Lähti:15
EK4, 1.27km, nopein: 42.8km/h
SijNroNimiTulosEro
1188Mikko Kaarlela1:46,9
2197Ari Kivelä1:49,22,3
3200Juha Niiranen1:51,64,7
4190Matti Löytynoja1:52,96,0
5195Henry Kehus1:53,46,5
6192Jari Sysimetsä1:53,56,6
7193Petri Kinnunen1:57,710,8
8189Tuomas Junes1:59,212,3
9198Eerikki Salmela1:59,712,8
10199Aleksi Kehus2:00,113,2
11201Teijo Heikkinen2:02,315,4
12194Kimmo Pakonen2:04,117,2
13191Kimmo Liljamaa2:05,919,0
14196Niko Mettovaara2:07,120,2
15203Eero Lammi2:07,120,2
Tulos EK 4 jälkeen
SijNroNimiTulosEro
1188Mikko Kaarlela18:40,8
2192Jari Sysimetsä18:45,5 4,7
3190Matti Löytynoja19:20,8 40,0
4195Henry Kehus19:21,3 40,5
5197Ari Kivelä19:27,9 47,1
6198Eerikki Salmela19:52,2 1:11,4
7200Juha Niiranen19:55,3 1:14,5
8193Petri Kinnunen19:56,6 1:15,8
9194Kimmo Pakonen19:57,0 1:16,2
10199Aleksi Kehus19:59,2 1:18,4
11189Tuomas Junes20:08,4 1:27,6
12203Eero Lammi21:04,7 2:23,9
13196Niko Mettovaara21:29,4 2:48,6
14191Kimmo Liljamaa21:38,4 2:57,6
15201Teijo Heikkinen23:11,7 4:30,9